TimeMDT,TemperatureF,Dew PointF,Humidity,Sea Level PressureIn,VisibilityMPH,Wind Direction,Wind SpeedMPH,Gust SpeedMPH,PrecipitationIn,Events,Conditions,WindDirDegrees,DateUTC
12:53 AM,72.0,34.0,25,29.90,10.0,Variable,3.5,-,N/A,,Clear,0,2013-08-13 06:53:00
1:53 AM,71.1,33.1,25,29.93,10.0,NE,9.2,-,N/A,,Clear,40,2013-08-13 07:53:00
2:53 AM,63.0,35.1,35,29.94,10.0,NE,5.8,-,N/A,,Clear,50,2013-08-13 08:53:00
3:53 AM,60.1,36.0,41,29.95,10.0,Calm,Calm,-,N/A,,Clear,0,2013-08-13 09:53:00
4:34 AM,55.4,39.2,54,30.11,10.0,WNW,3.5,-,N/A,,Mostly Cloudy,300,2013-08-13 10:34:00
4:53 AM,55.0,39.0,55,29.96,10.0,Calm,Calm,-,N/A,,Scattered Clouds,0,2013-08-13 10:53:00
5:53 AM,52.0,39.0,61,29.97,10.0,NNW,5.8,-,N/A,,Clear,330,2013-08-13 11:53:00
6:53 AM,50.0,39.0,66,30.01,10.0,North,4.6,-,N/A,,Clear,10,2013-08-13 12:53:00
7:53 AM,60.1,39.0,46,30.02,10.0,SE,3.5,-,N/A,,Clear,130,2013-08-13 13:53:00
8:53 AM,66.0,46.0,48,30.03,10.0,WSW,5.8,-,N/A,,Partly Cloudy,240,2013-08-13 14:53:00
9:53 AM,75.0,44.1,33,30.01,10.0,WSW,6.9,-,N/A,,Clear,240,2013-08-13 15:53:00
10:53 AM,73.0,46.0,38,30.02,10.0,WNW,8.1,-,N/A,,Clear,300,2013-08-13 16:53:00
11:53 AM,80.1,37.9,22,30.01,10.0,Calm,Calm,-,N/A,,Clear,0,2013-08-13 17:53:00
12:53 PM,82.9,37.9,20,30.00,10.0,Calm,Calm,-,N/A,,Clear,0,2013-08-13 18:53:00
1:53 PM,82.9,42.1,24,29.99,10.0,NW,15.0,-,N/A,,Clear,310,2013-08-13 19:53:00
2:53 PM,88.0,37.0,16,29.98,10.0,Variable,5.8,-,N/A,,Clear,0,2013-08-13 20:53:00
3:53 PM,90.0,27.0,10,29.94,10.0,East,10.4,16.1,N/A,,Clear,100,2013-08-13 21:53:00
4:53 PM,89.1,24.1,9,29.96,10.0,ESE,5.8,-,N/A,,Partly Cloudy,110,2013-08-13 22:53:00
5:53 PM,86.0,32.0,14,29.97,10.0,South,29.9,39.1,N/A,,Scattered Clouds,180,2013-08-13 23:53:00
6:53 PM,87.1,28.0,12,29.96,10.0,South,12.7,-,N/A,,Clear,190,2013-08-14 00:53:00
7:53 PM,81.0,28.0,14,29.94,7.0,SE,5.8,-,N/A,,Clear,130,2013-08-14 01:53:00
8:53 PM,75.0,30.9,20,29.96,10.0,SSE,8.1,-,N/A,,Clear,150,2013-08-14 02:53:00
9:53 PM,73.9,33.1,22,29.94,10.0,SW,5.8,-,N/A,,Clear,230,2013-08-14 03:53:00
10:53 PM,71.1,35.1,27,29.98,10.0,East,6.9,-,N/A,,Clear,90,2013-08-14 04:53:00
11:53 PM,64.0,35.1,34,29.97,10.0,South,8.1,-,N/A,,Clear,190,2013-08-14 05:53:00